This demonstration page uses our WeatherBlox Daily Observations layout. Learn more.

Left ArrowRight Arrow

Hourly Observations for January 7, 2022

Temp ( °F °C ) Dew Point ( °F °C ) Humidity (%) Winds ( mph kmh ) Pressure ( in mb ) Visibility ( mi km ) Precip ( " mm )
12:51 am 00:51 Clear 36 2.2 32 0 86 86 Calm 29.94 1014 10 16 0.00 0.00
1:51 am 01:51 Clear 37 2.8 32 0 82 82 SSE 6 9 29.93 1014 10 16 0.00 0.00
2:51 am 02:51 Clear 35 1.7 32 0 89 89 SSE 6 9 29.94 1014 10 16 0.00 0.00
3:51 am 03:51 Clear 35 1.7 31 -0.6 85 85 E 3 6 29.94 1014 10 16 0.00 0.00
4:51 am 04:51 Clear 31 -0.6 30 -1.1 96 96 Calm 29.94 1014 10 16 0.00 0.00
5:51 am 05:51 Clear 31 -0.6 29 -1.7 92 92 Calm 29.98 1015 10 16 0.00 0.00
6:51 am 06:51 Clear 31 -0.6 30 -1.1 96 96 E 3 6 29.99 1016 10 16 0.00 0.00
7:51 am 07:51 Sunny 34 1.1 31 -0.6 89 89 ENE 5 7 30.00 1016 10 16 0.00 0.00
8:51 am 08:51 Sunny 43 6.1 35 1.7 74 74 SE 6 9 30.01 1016 10 16 0.00 0.00
9:51 am 09:51 Sunny 52 11.1 34 1.1 50 50 ESE 7 11 29.99 1016 10 16 0.00 0.00
10:51 am 10:51 Sunny 54 12.2 36 2.2 51 51 W 5 7 29.99 1016 10 16 0.00 0.00
11:51 am 11:51 Sunny 57 13.9 35 1.7 44 44 WNW 3 6 29.96 1015 10 16 0.00 0.00
12:51 pm 12:51 Sunny 61 16.1 35 1.7 38 38 Calm 29.91 1013 10 16 0.00 0.00
1:51 pm 13:51 Sunny 64 17.8 33 0.6 32 32 WSW 5 7 29.86 1011 10 16 0.00 0.00
2:51 pm 14:51 Sunny 65 18.3 34 1.1 32 32 Calm 29.85 1011 10 16 0.00 0.00
3:51 pm 15:51 Sunny 66 18.9 34 1.1 30 30 W 5 7 29.83 1010 10 16 0.00 0.00
4:51 pm 16:51 Sunny 64 17.8 35 1.7 34 34 W 7 11 29.85 1011 10 16 0.00 0.00
5:51 pm 17:51 Clear 54 12.2 36 2.2 51 51 NNW 7 11 29.87 1012 10 16 0.00 0.00
6:51 pm 18:51 Clear 51 10.6 36 2.2 56 56 N 8 13 29.88 1012 10 16 0.00 0.00
7:51 pm 19:51 Clear 48 8.9 36 2.2 63 63 NE 3 6 29.89 1012 10 16 0.00 0.00
8:51 pm 20:51 Clear 45 7.2 35 1.7 68 68 E 3 6 29.88 1012 10 16 0.00 0.00
9:51 pm 21:51 Clear 43 6.1 35 1.7 74 74 E 6 9 29.89 1012 10 16 0.00 0.00
10:51 pm 22:51 Clear 44 6.7 36 2.2 73 73 E 6 9 29.89 1012 10 16 0.00 0.00
11:51 pm 23:51 Clear 43 6.1 35 1.7 74 74 E 6 9 29.89 1012 10 16 0.00 0.00

Powered by AerisWeather